sat.trackr.live / text

‹ back to catalog

SDA_1667

NORAD 65977 · 2025-230D

PAYLOAD ACTIVE UNKNOWN

§ Identity

Operator
Country
US
Launch date
2025-10-15
Launch site
AFWTR
Launch vehicle
Mass (kg)
RCS (m²)

External: N2YO · Heavens-Above · Gunter

§ Orbital elements

Epoch: 2026-05-25T05:09:06.986880Z

Period
104.23 min
Inclination
81.3001°
Eccentricity
0.0001420
Mean motion
13.81496199 rev/d
Perigee alt
957.5 km
Apogee alt
959.6 km
Semi-major
7,336.7 km
B*
-5.0031e-3
RAAN
233.2448°
Arg perigee
99.8503°
Mean anomaly
260.2812°
Rev number
3,061

§ Raw data

SDA_16671 65977U 25230D   26145.21466420 -.00005308  00000+0 -50031-2 0  99972 65977  81.3001 233.2448 0001420  99.8503 260.2812 13.81496199 30618

JSON: /api/v1/satellites/65977 · /tle

For live sub-satellite position, see the globe view (requires WebGL).

§ Visibility from observer

Set your observer location to see the next 7 days of passes ≥ 10°. The values pass through the URL so the page stays shareable.

No JS? Fill the form by hand. The geolocation button needs JavaScript.

§ Radio — SatNOGS DB

ModeDescriptionDownlinkUplink
FM S-band telemetry 2.226 GHz

1 transmitter · refreshed weekly from db.satnogs.org